AC1-002

导读

AC1-002是一颗计划于北京时间2025年11月28日发射的卫星,其发射国家目前尚未确定,标记为TBD。该卫星具体任务、轨道参数及功能定位等信息也暂未公开披露,作为待发射航天器,其相关后续进展将随着发射筹备工作推进逐步公布,备受航天领域关注。

基本信息
目录编号:
66745
目录名称:
AC1-002
国际标识:
2025-276CH
轨道中心:
EARTH
卫星名称:
AC1-002
卫星全名:
AC1-002
卫星状态:
在轨 (已飞行281 天)
发射日期:
2025-11-28 UTC
国别 :
英国 (GB)
星等 :
--
轨道信息
数据来源 国际轨道数据
星历时间: 2026-09-05T11:43:13+0800
16小时前
查看轨道信息
半长轴: 6887.825km
偏心率: 0.0003763
轨道倾角: 97.413°
近地点辐角 80.127°
升交点赤经 319.974°
平近点角 280.039°
近地点: 507.096km
远地点: 512.28km
周期: 94.816分钟
每日圈数: 15.187269
详细信息
使用方式:
暂无
2D轨道图
3D轨道图
轨道高度分析图
轨道倾角分析图
轨道综合分析图
查看轨道综合分析图
交会数据列表
事件ID 空间交会对象 最接近时刻(TCA) 交会距离 交会风险概率(CRP) 交会风险指数(CRI) 操作
CDM_260906-180606-674506-845923
AC1-002 (66745)
2026-09-06T
18:06:56+0000
1.097 km
极远距离
1.771407E-5 中风险 0.6
CDM_260906-220406-674506-845922
AC1-002 (66745)
2026-09-06T
22:04:09+0000
2.843 km
极远距离
1.311122E-6 低风险 0.37